Regional Weather Roundup
Issued by NWS Little Rock, AR

Home | Current Version | Previous Version | Graphics & Text | Print | Product List | Glossary Off
Versions: 1 2 3 4 5 6 7 8 9 10 11 12 13 14 15 16 17 18 19 20 21 22 23 24 25 26 27 28 29 30 31 32 33 34 35 36 37 38 39 40 41 42 43 44 45 46 47 48 49

000
ASUS44 KLZK 240105
RWRLZK

WEATHER ROUNDUP FOR ARKANSAS
NATIONAL WEATHER SERVICE LITTLE ROCK AR
800 PM CDT TUE SEP 23 2014

NOTE: "FAIR" INDICATES FEW OR NO CLOUDS BELOW 12,000 FEET WITH NO
SIGNIFICANT WEATHER AND/OR OBSTRUCTIONS TO VISIBILITY.

ARZ001-003-010-029-240200-
NORTHWEST ARKANSAS

CITY           SKY/WX    TMP DP  RH WIND       PRES   REMARKS
FAYETTEVILLE   CLEAR     60  54  80 CALM      30.17S
FORT SMITH     CLEAR     68  53  58 E3        30.13F
HARRISON       CLEAR     59  50  72 CALM      30.19S
BENTONVILLE    CLEAR     66  48  52 S6        30.17R
ROGERS         CLEAR     65  50  58 SE6       30.18R
SILOAM SPGS    CLEAR     64  46  52 CALM      30.17S
HIGHFILL       CLEAR     65  52  62 S6        30.16R
SPRINGDALE     PTCLDY    66  48  52 S8        30.18S
$$

ARZ004-005-016-240200-
NORTH CENTRAL ARKANSAS

CITY           SKY/WX    TMP DP  RH WIND       PRES   REMARKS
BATESVILLE     PTCLDY    66  45  45 NE5       30.18R
FLIPPIN        PTCLDY    66  45  45 NE3       30.18S
MTN HOME       CLEAR     63  49  60 E3        30.18S
$$

ARZ040-041-240200-
WEST CENTRAL ARKANSAS

CITY           SKY/WX    TMP DP  RH WIND       PRES   REMARKS
MENA             N/A     59  55  88 CALM      30.16R
MOUNT IDA      CLEAR     61  57  87 CALM      30.13S
$$

ARZ009-017-025-026-028-240200-
NORTHEAST ARKANSAS

CITY           SKY/WX    TMP DP  RH WIND       PRES   REMARKS
CORNING          N/A     63  50  63 NE8       30.19S
JONESBORO      PTCLDY    62  51  67 N5        30.17S
NEWPORT        PTCLDY    60  49  67 NE6       30.18S
WALNUT RIDGE   PTCLDY    64  52  63 E6        30.18R
BLYTHEVILLE    PTCLDY    63  55  75 NE3       30.18R
$$

ARZ022-023-033-042-044-240200-
CENTRAL ARKANSAS

CITY           SKY/WX    TMP DP  RH WIND       PRES   REMARKS
LITTLE ROCK    PTCLDY    67  51  56 NE3       30.14F
N LITTLE ROCK  PTCLDY    68  49  49 NE6       30.14F
JACKSONVILLE   PTCLDY    62  51  66 CALM      30.15S
SEARCY           N/A    N/A N/A N/A MISG        N/A
HOT SPRINGS    CLEAR     65  48  54 NE5       30.16R
RUSSELLVILLE   PTCLDY    61  55  81 CALM      30.15S
CLINTON        FAIR      63  55  77 NW3       30.18R
$$

ARZ036-240200-
EAST ARKANSAS

CITY           SKY/WX    TMP DP  RH WIND       PRES   REMARKS
WEST MEMPHIS   CLEAR     65  50  58 CALM      30.15S
$$

ARZ050-053-066-070-073-240200-
SOUTHWEST ARKANSAS

CITY           SKY/WX    TMP DP  RH WIND       PRES   REMARKS
ARKADELPHIA    FAIR      64  59  84 CALM      30.14S
CAMDEN         PTCLDY    63  50  63 CALM      30.12S
TEXARKANA      CLEAR     67  53  61 NE5       30.12S
EL DORADO      PTCLDY    64  55  72 CALM      30.12S
DE QUEEN       CLEAR     62  58  86 E3        30.11S
$$

ARZ056-057-069-240200-
SOUTHEAST ARKANSAS

CITY           SKY/WX    TMP DP  RH WIND       PRES   REMARKS
PINE BLUFF     PTCLDY    64  47  53 N5        30.13F
STUTTGART      CLEAR     64  50  59 NE3       30.15S
MONTICELLO     LGT RAIN  66  49  54 CALM      30.12S

$$





USA.gov is the U.S. government's official web portal to all federal, state and local government web resources and services.